Tiempo cada hora Cartagena

Hoy, 21 Octubre, Miércoles

Tiempo Temperatura Precipitaciones Viento Presión Humedad
00:00 +19°C° 0 mm 3 mps 756 mmHg 76%
01:00 +19°C° 0 mm 3 mps 756 mmHg 71%
02:00 +20°C° 0 mm 3 mps 756 mmHg 66%
03:00 +21°C° 0 mm 2 mps 755 mmHg 61%
04:00 +20°C° 0 mm 3 mps 756 mmHg 64%
05:00 +20°C° 0 mm 4 mps 756 mmHg 67%
06:00 +19°C° 0 mm 5 mps 757 mmHg 70%
07:00 +21°C° 0 mm 6 mps 757 mmHg 63%
08:00 +23°C° 0 mm 7 mps 758 mmHg 55%
09:00 +26°C° 0 mm 8 mps 759 mmHg 48%
10:00 +28°C° 0 mm 8 mps 758 mmHg 44%
11:00 +29°C° 0 mm 8 mps 758 mmHg 40%
12:00 +31°C° 0 mm 8 mps 758 mmHg 35%
13:00 +29°C° 0 mm 7 mps 758 mmHg 39%
14:00 +28°C° 0 mm 7 mps 758 mmHg 42%
15:00 +27°C° 0 mm 6 mps 757 mmHg 46%
16:00 +26°C° 0 mm 5 mps 758 mmHg 50%
17:00 +25°C° 0 mm 4 mps 758 mmHg 55%
18:00 +24°C° 0 mm 2 mps 758 mmHg 59%
19:00 +24°C° 0 mm 2 mps 758 mmHg 62%
20:00 +23°C° 0 mm 2 mps 759 mmHg 64%
21:00 +23°C° 0 mm 1 mps 759 mmHg 66%
22:00 +23°C° 0 mm 1 mps 759 mmHg 67%
23:00 +22°C° 0 mm 1 mps 759 mmHg 68%

Mañana, 22 Octubre, Jueves

Tiempo Temperatura Precipitaciones Viento Presión Humedad
00:00 +22°C° 0 mm 1 mps 759 mmHg 68%
01:00 +22°C° 0 mm 1 mps 759 mmHg 68%
02:00 +22°C° 0 mm 1 mps 759 mmHg 68%
03:00 +22°C° 0 mm 1 mps 759 mmHg 68%
04:00 +20°C° 0 mm 2 mps 759 mmHg 70%
05:00 +20°C° 0 mm 2 mps 759 mmHg 71%
06:00 +19°C° 0 mm 3 mps 759 mmHg 73%
07:00 +21°C° 0 mm 3 mps 760 mmHg 67%
08:00 +22°C° 0 mm 3 mps 760 mmHg 61%
09:00 +25°C° 0 mm 3 mps 760 mmHg 55%
10:00 +26°C° 0 mm 3 mps 760 mmHg 50%
11:00 +27°C° 0 mm 4 mps 760 mmHg 45%
12:00 +28°C° 0 mm 4 mps 760 mmHg 41%
13:00 +27°C° 0 mm 3 mps 760 mmHg 46%
14:00 +25°C° 0 mm 2 mps 760 mmHg 51%
15:00 +24°C° 0 mm 1 mps 760 mmHg 56%
16:00 +23°C° 0.2 mm 2 mps 760 mmHg 65%
17:00 +21°C° 0.2 mm 3 mps 761 mmHg 73%
18:00 +19°C° 0.2 mm 4 mps 761 mmHg 82%
19:00 +19°C° 0.1 mm 4 mps 762 mmHg 82%
20:00 +19°C° 0.1 mm 4 mps 762 mmHg 81%
21:00 +19°C° 0.1 mm 3 mps 763 mmHg 81%
22:00 +19°C° 0 mm 3 mps 763 mmHg 81%
23:00 +19°C° 0 mm 4 mps 763 mmHg 81%

Pasado mañana, 23 Octubre, Viernes

Tiempo Temperatura Precipitaciones Viento Presión Humedad
00:00 +19°C° 0 mm 4 mps 763 mmHg 81%
01:00 +18°C° 0 mm 3 mps 764 mmHg 83%
02:00 +18°C° 0 mm 3 mps 764 mmHg 85%
03:00 +17°C° 0 mm 3 mps 764 mmHg 87%
04:00 +17°C° 0 mm 3 mps 764 mmHg 87%
05:00 +17°C° 0 mm 2 mps 764 mmHg 86%
06:00 +17°C° 0 mm 2 mps 764 mmHg 86%
07:00 +19°C° 0 mm 2 mps 765 mmHg 76%
08:00 +22°C° 0 mm 1 mps 765 mmHg 66%
09:00 +24°C° 0 mm 1 mps 766 mmHg 56%
10:00 +25°C° 0 mm 1 mps 766 mmHg 52%
11:00 +26°C° 0 mm 2 mps 766 mmHg 47%
12:00 +27°C° 0 mm 2 mps 766 mmHg 42%
13:00 +26°C° 0 mm 3 mps 766 mmHg 44%
14:00 +26°C° 0 mm 4 mps 766 mmHg 46%
15:00 +26°C° 0 mm 4 mps 766 mmHg 48%
16:00 +23°C° 0 mm 4 mps 766 mmHg 53%
17:00 +22°C° 0 mm 4 mps 766 mmHg 58%
18:00 +21°C° 0 mm 4 mps 766 mmHg 63%
19:00 +21°C° 0 mm 3 mps 766 mmHg 59%
20:00 +21°C° 0 mm 3 mps 767 mmHg 55%
21:00 +21°C° 0 mm 2 mps 767 mmHg 52%
22:00 +20°C° 0 mm 2 mps 767 mmHg 51%
23:00 +20°C° 0 mm 3 mps 767 mmHg 50%

24 Octubre, Sábado

Tiempo Temperatura Precipitaciones Viento Presión Humedad
00:00 +19°C° 0 mm 3 mps 767 mmHg 49%
01:00 +19°C° 0 mm 3 mps 767 mmHg 52%
02:00 +18°C° 0 mm 3 mps 767 mmHg 55%
03:00 +17°C° 0 mm 3 mps 767 mmHg 58%
04:00 +17°C° 0 mm 3 mps 767 mmHg 60%
05:00 +17°C° 0 mm 3 mps 767 mmHg 62%
06:00 +16°C° 0 mm 3 mps 767 mmHg 64%
07:00 +18°C° 0 mm 3 mps 767 mmHg 59%
08:00 +20°C° 0 mm 3 mps 767 mmHg 53%
09:00 +21°C° 0 mm 3 mps 768 mmHg 48%
10:00 +22°C° 0 mm 3 mps 767 mmHg 45%
11:00 +24°C° 0 mm 2 mps 767 mmHg 41%
12:00 +25°C° 0 mm 1 mps 767 mmHg 37%
13:00 +26°C° 0 mm 2 mps 766 mmHg 37%
14:00 +26°C° 0 mm 2 mps 766 mmHg 37%
15:00 +26°C° 0 mm 3 mps 765 mmHg 36%
16:00 +24°C° 0 mm 3 mps 765 mmHg 44%
17:00 +21°C° 0 mm 3 mps 765 mmHg 51%
18:00 +20°C° 0 mm 3 mps 765 mmHg 58%
19:00 +19°C° 0 mm 3 mps 765 mmHg 60%
20:00 +18°C° 0 mm 2 mps 765 mmHg 62%
21:00 +18°C° 0 mm 2 mps 766 mmHg 64%
22:00 +17°C° 0 mm 2 mps 765 mmHg 65%
23:00 +17°C° 0 mm 2 mps 765 mmHg 65%

25 Octubre, Domingo

Tiempo Temperatura Precipitaciones Viento Presión Humedad
00:00 +17°C° 0 mm 2 mps 765 mmHg 65%
01:00 +16°C° 0 mm 2 mps 764 mmHg 68%
02:00 +16°C° 0 mm 3 mps 764 mmHg 71%
03:00 +16°C° 0 mm 3 mps 764 mmHg 74%
04:00 +14°C° 0 mm 3 mps 764 mmHg 76%
05:00 +14°C° 0 mm 3 mps 763 mmHg 77%
06:00 +14°C° 0 mm 3 mps 763 mmHg 79%
07:00 +17°C° 0 mm 3 mps 763 mmHg 68%
08:00 +19°C° 0 mm 2 mps 763 mmHg 57%
09:00 +23°C° 0 mm 2 mps 763 mmHg 46%
10:00 +24°C° 0 mm 3 mps 763 mmHg 41%
11:00 +25°C° 0 mm 3 mps 763 mmHg 35%
12:00 +26°C° 0 mm 3 mps 763 mmHg 30%
13:00 +26°C° 0 mm 4 mps 763 mmHg 30%
14:00 +27°C° 0 mm 5 mps 762 mmHg 31%
15:00 +27°C° 0 mm 6 mps 761 mmHg 31%
16:00 +25°C° 0 mm 5 mps 761 mmHg 41%
17:00 +22°C° 0 mm 5 mps 761 mmHg 52%
18:00 +20°C° 0 mm 4 mps 761 mmHg 62%
19:00 +19°C° 0 mm 4 mps 762 mmHg 62%
20:00 +19°C° 0 mm 3 mps 762 mmHg 62%
21:00 +18°C° 0 mm 3 mps 762 mmHg 61%
22:00 +18°C° 0 mm 2 mps 762 mmHg 57%
23:00 +18°C° 0 mm 2 mps 762 mmHg 52%

26 Octubre, Lunes

Tiempo Temperatura Precipitaciones Viento Presión Humedad
00:00 +18°C° 0 mm 2 mps 762 mmHg 48%
01:00 +18°C° 0 mm 2 mps 762 mmHg 49%
02:00 +18°C° 0 mm 2 mps 761 mmHg 49%
03:00 +17°C° 0 mm 3 mps 761 mmHg 50%
04:00 +17°C° 0 mm 4 mps 762 mmHg 51%
05:00 +16°C° 0 mm 5 mps 762 mmHg 52%
06:00 +16°C° 0 mm 6 mps 762 mmHg 52%
07:00 +17°C° 0 mm 7 mps 763 mmHg 48%
08:00 +17°C° 0 mm 7 mps 763 mmHg 44%
09:00 +18°C° 0 mm 8 mps 763 mmHg 39%
10:00 +20°C° 0 mm 7 mps 763 mmHg 36%
11:00 +21°C° 0 mm 7 mps 763 mmHg 33%
12:00 +22°C° 0 mm 6 mps 763 mmHg 30%
13:00 +22°C° 0 mm 6 mps 763 mmHg 30%
14:00 +22°C° 0 mm 6 mps 763 mmHg 30%
15:00 +22°C° 0 mm 5 mps 763 mmHg 30%
16:00 +21°C° 0 mm 5 mps 763 mmHg 34%
17:00 +20°C° 0 mm 5 mps 763 mmHg 38%
18:00 +18°C° 0 mm 4 mps 763 mmHg 42%
19:00 +18°C° 0 mm 4 mps 764 mmHg 48%
20:00 +17°C° 0 mm 4 mps 764 mmHg 55%
21:00 +15°C° 0 mm 4 mps 764 mmHg 61%
22:00 +14°C° 0 mm 3 mps 764 mmHg 60%
23:00 +14°C° 0 mm 3 mps 764 mmHg 60%

27 Octubre, Martes

Tiempo Temperatura Precipitaciones Viento Presión Humedad
00:00 +14°C° 0 mm 2 mps 764 mmHg 59%
01:00 +14°C° 0 mm 3 mps 764 mmHg 58%
02:00 +14°C° 0 mm 3 mps 764 mmHg 56%
03:00 +14°C° 0 mm 3 mps 764 mmHg 55%
04:00 +13°C° 0 mm 3 mps 764 mmHg 57%
05:00 +13°C° 0 mm 3 mps 764 mmHg 58%
06:00 +12°C° 0 mm 3 mps 764 mmHg 60%
07:00 +14°C° 0 mm 3 mps 764 mmHg 56%
08:00 +17°C° 0 mm 3 mps 764 mmHg 51%
09:00 +18°C° 0 mm 3 mps 764 mmHg 46%
10:00 +19°C° 0 mm 2 mps 763 mmHg 43%
11:00 +20°C° 0 mm 2 mps 763 mmHg 40%
12:00 +21°C° 0 mm 2 mps 763 mmHg 37%
13:00 +23°C° 0 mm 2 mps 763 mmHg 37%
14:00 +22°C° 0 mm 3 mps 762 mmHg 37%
15:00 +22°C° 0 mm 3 mps 762 mmHg 37%
16:00 +21°C° 0 mm 4 mps 762 mmHg 47%
17:00 +19°C° 0 mm 4 mps 762 mmHg 57%
18:00 +18°C° 0 mm 4 mps 762 mmHg 66%
19:00 +17°C° 0 mm 4 mps 762 mmHg 69%
20:00 +17°C° 0 mm 4 mps 762 mmHg 72%
21:00 +17°C° 0 mm 4 mps 763 mmHg 76%
22:00 +15°C° 0 mm 4 mps 762 mmHg 75%
23:00 +16°C° 0 mm 3 mps 762 mmHg 75%
Mostrar más

Necesitamos Su Consentimiento

Meteoprog y nuestros Proveedores de Servicios pueden almacenar y acceder a sus datos personales como cookies, identificadores de dispositivo u otras tecnologías similares de su dispositivo y procesar dichos datos para personalizar contenido y anuncios, además de ofrecer funciones de redes sociales y analizar el tráfico.

  • Almacenar y/o acceder a información en su dispositivo

    Se puede almacenar o acceder a cookies, identificadores de dispositivo u otra información de su dispositivo para los fines anteriormente indicados.

  • Anuncios y contenido personalizados, medición de anuncios y contenido, percepciones del público, y desarrollo de productos

    Los anuncios y el contenido pueden personalizarse en base a su perfil. Se pueden añadir más datos para personalizar mejor los anuncios y contenidos. Se puede medir el rendimiento de los anuncios y contenidos. Se puede obtener la percepción sobre el público que ha visto los anuncios y contenidos. Dichos datos pueden usarse para desarrollar o mejorar la experiencia del usuario, sistemas y software.

Al hacer clic en ‘Estoy De Acuerdo’ usted permitirá el uso de las cookies, identificadores de dispositivo, balizas web u otras tecnologías similares indicadas. Su configuración puede cambiarse desde el navegador de su dispositivo.

Para ciertos fines, los intereses legítimos pueden ser considerados por encima del consentimiento. Puede leer más sobre ello en nuestra Política de Privacidad y Cookies.